This is the latest recevied weather packets stored in our database for station/object SP5MRF. If no packets are shown the sender has not sent any weather packets the latest 10 day(s).
| Time | Temp. | Humidity | Pressure | Rain* | Wind** | Luminosity | Snow |
|---|---|---|---|---|---|---|---|
| 1788163255 | 26.11° C | 59% | 1009.8 hPa | 0 mm | - | - | - |
| 1788162774 | 25.56° C | 60% | 1009.6 hPa | 0 mm | - | - | - |
| 1788162297 | 25° C | 63% | 1009.6 hPa | 0 mm | - | - | - |
| 1788161334 | 23.33° C | 67% | 1009.8 hPa | 0 mm | - | - | - |
| 1788160853 | 22.78° C | 68% | 1009.9 hPa | 0 mm | - | - | - |
| 1788160374 | 22.22° C | 68% | 1009.8 hPa | 0 mm | - | - | - |
| 1788159894 | 21.67° C | 69% | 1009.8 hPa | 0 mm | - | - | - |
| 1788159414 | 21.67° C | 70% | 1009.9 hPa | 0 mm | - | - | - |
| 1788158934 | 21.11° C | 72% | 1009.9 hPa | 0 mm | - | - | - |
| 1788158455 | 20.56° C | 73% | 1010.1 hPa | 0 mm | - | - | - |
| 1788157975 | 20.56° C | 74% | 1010 hPa | 0 mm | - | - | - |
| 1788157014 | 20° C | 77% | 1010.1 hPa | 0 mm | - | - | - |
| 1788156534 | 19.44° C | 80% | 1010.1 hPa | 0 mm | - | - | - |
| 1788154614 | 17.22° C | 82% | 1010.2 hPa | 0 mm | - | - | - |
| 1788154134 | 16.67° C | 82% | 1010.1 hPa | 0 mm | - | - | - |
| 1788153655 | 16.11° C | 82% | 1010 hPa | 0 mm | - | - | - |
| 1788153175 | 15.56° C | 82% | 1010.2 hPa | 0 mm | - | - | - |
| 1788152695 | 15.56° C | 81% | 1010.2 hPa | 0 mm | - | - | - |
| 1788152214 | 15.56° C | 81% | 1010 hPa | 0 mm | - | - | - |
| 1788151734 | 15° C | 81% | 1010.2 hPa | 0 mm | - | - | - |
| 1788151256 | 15° C | 81% | 1010.1 hPa | 0 mm | - | - | - |
| 1788150774 | 14.44° C | 81% | 1010.1 hPa | 0 mm | - | - | - |
| 1788150296 | 14.44° C | 81% | 1009.9 hPa | 0 mm | - | - | - |
| 1788149815 | 14.44° C | 80% | 1010.1 hPa | 0 mm | - | - | - |
| 1788149334 | 14.44° C | 80% | 1010.1 hPa | 0 mm | - | - | - |
* Rain latest hour (hover to see other rain measurements)
** Current wind speed in m/s (hover to see current wind gust speed)